Regional Weather Roundup
Issued by NWS Memphis, TN

Home | Current Version | Previous Version | Text Only | Print | Product List | Glossary On
Versions: 1 2 3 4 5 6 7 8 9 10 11 12 13 14 15 16 17 18 19 20 21 22 23 24 25 26 27 28 29 30 31 32 33 34 35 36 37 38 39 40 41 42 43 44 45 46 47 48 49 50
000
ASUS44 KMEG 231900
RWRMEG
MEMPHIS CWA HOURLY WEATHER ROUNDUP
NATIONAL WEATHER SERVICE MEMPHIS TN
100 PM CST THU FEB 23 2017

...WEST TENNESSEE...

CITY           SKY/WX    TMP DP  RH WIND       PRES   REMARKS
MEMPHIS INTL   MOSUNNY   76  55  48 S15       29.73F
NWS MEMPHIS      N/A     76 N/A N/A MISG        N/A
JACKSON        PTSUNNY   72  58  61 S13       29.76F
UNION CITY     PTSUNNY   72  54  53 S14       29.72F
PARIS          CLOUDY    70  55  60 S13       29.76F


...EASTERN ARKANSAS...

CITY           SKY/WX    TMP DP  RH WIND       PRES   REMARKS
JONESBORO      MOSUNNY   71  58  63 S13       29.70F
WEST MEMPHIS   MOSUNNY   73  59  61 S15G25    29.72F
BATESVILLE     MOSUNNY   73  57  56 S13G18    29.68F
NEWPORT        SUNNY     73  59  61 MISG      29.69
WALNUT RIDGE   MOSUNNY   72  57  60 S18       29.68F
BLYTHEVILLE    SUNNY     74  57  55 SW16      29.72F
NW BLYTHEVILLE MOSUNNY   73  57  56 S14G25    29.72F
SEARCY         SUNNY     74  62  66 S14G21    29.70F
STUTTGART      SUNNY     73  55  53 S14       29.72F
PINE BLUFF     SUNNY     74  58  57 S13       29.71F
MONTICELLO     SUNNY     76  57  51 S10       29.73F


...NORTH MISSISSIPPI...

CITY           SKY/WX    TMP DP  RH WIND       PRES   REMARKS
TUPELO         CLOUDY    66  59  78 SE10      29.80F
OXFORD         PTSUNNY   72  55  56 S10G17    29.78F
BATESVILLE     SUNNY     74  56  52 S8G17     29.76F
OLIVE BRANCH   MOSUNNY  N/A N/A N/A S13       29.74F
TUNICA         SUNNY     73  55  53 S12G17    29.74F
GREENWOOD      SUNNY     77  53  43 S8        29.75F
COLUMBUS       CLOUDY    64  61  90 S6        29.81F
GOLDEN TRIANGL CLOUDY    63  55  77 SE7       29.79F FOG


...SOUTHEAST MISSOURI...

CITY           SKY/WX    TMP DP  RH WIND       PRES   REMARKS
KENNETT        MOSUNNY   72  59  64 SW16G22   29.70F HAZE
MALDEN         PTSUNNY   70  57  64 S17       29.72F
WEST PLAINS    SUNNY     72  55  55 S17G25    29.63F
POPLAR BLUFF   CLOUDY    68  58  70 S15       29.69F
CAPE GIRARDEAU PTSUNNY   68  56  65 S16       29.70F


...NORTHWEST ALABAMA...

CITY           SKY/WX    TMP DP  RH WIND       PRES   REMARKS
MUSCLE SHOALS  MOSUNNY   72  57  59 S8        29.81F


...MIDDLE TENNESSEE...

CITY           SKY/WX    TMP DP  RH WIND       PRES   REMARKS
NASHVILLE      PTSUNNY   73  55  53 S14       29.79F
CLARKSVILLE    PTSUNNY   70  56  61 S15G21    29.77F
COLUMBIA       CLOUDY    70  66  88 S7        29.78F


...WESTERN KENTUCKY...

CITY           SKY/WX    TMP DP  RH WIND       PRES   REMARKS
PADUCAH        CLOUDY    71  55  56 SW12      29.72F
FORT CAMPBELL  PTSUNNY   70  57  64 SW15G21   29.76F


...CENTRAL ARKANSAS...

CITY           SKY/WX    TMP DP  RH WIND       PRES   REMARKS
LITTLE ROCK    MOSUNNY   74  59  59 S17       29.68F


SKY/WX REPORTED AS FAIR MEANS FEW OR NO CLOUDS BELOW
12 THOUSAND FEET.





USA.gov is the U.S. government's official web portal to all federal, state and local government web resources and services.